Other Public Products
Issued by NWS Charleston, SC

Current Version | Previous Version | Graphics & Text | Print | Product List | Glossary On
Versions: 1 2 3 4 5 6 7 8 9 10 11 12 13 14 15 16 17 18 19 20 21 22 23 24 25 26 27 28 29 30 31 32 33 34 35 36 37 38 39 40 41 42 43 44 45 46 47 48 49 50
000
FPUS82 KCHS 121111
OPUCHS

TEST...KCHS/KSAV Gateway Observations...TEST
National Weather Service Charleston SC
600 AM EST TUE DEC 12 2017

NOTE: "fair" indicates few or no clouds below 12,000 feet with no
significant weather and/or obstructions to visibility.

SCZ050-WAZ558-NCZ071-TXZ119-213-PAZ071-DCZ001-FLZ074-172-MI076-
NYZ176-178-MAZ016-IL014-TNZ027-NJZ106-GAZ044-MD014-121200-

...Gateway Observations for Charleston International...

CITY           SKY/WX    TMP DP  RH WIND       PRES   REMARKS
Chas Airport   CLEAR     44  38  79 SW9       29.88F
Seattle        MOCLDY    36  26  67 E3        30.45S
Charlotte      MOCLDY    42  35  76 SW5       29.75F
Dallas DFW     PTCLDY    49  28  44 N20G25    30.31R
Dallas Love    PTCLDY    49  27  42 N21G26    30.32R
Philladelphia  CLOUDY    43  34  70 SE12      29.66F
Wash National  CLOUDY    42  32  67 S8        29.64F
Baltimore      CLOUDY    40  32  73 S6        29.63F WCI  36
Miami          CLEAR     50  47  89 CALM      30.09S
Detroit        LGT SNOW  26  17  68 NW17G31   29.75R BLWGSNOWWCI  13
Newark         CLOUDY    45  37  73 S8        29.71F
Laguardia      CLOUDY    47  37  68 S14       29.72F
J F K          CLOUDY    47  38  71 S21G28    29.73F
Boston Logan   NOT AVBL
Ft. Lauderdale CLEAR     50  46  86 NW5       30.08S
Chicago O`Hare PTCLDY    20   8  60 NW18G24   30.03R WCI   5
Chicago Midway PTCLDY    21  11  65 NW18G25   30.03R WCI   6
Houston Bush   PTCLDY    51  35  54 NW6       30.23R
Houston Hobby  CLOUDY    51  37  58 N9        30.21R
Nashville      CLOUDY    45  33  63 NW18G28   29.96R
Atlanta        MOCLDY    43  37  79 W7        29.84F

$$

GAZ044-118-TXZ119-213-NCZ071-DCZ001-MDZ014-506-PAZ021-071-NJZ106-
NYZ176-178-MAZ106-OHZ011-021-055-MIZ076-KYZ091-ILZ014-INZ047-
MNZ060-ONZ431-121200-

...Gateway Observations for Savannah International...

CITY           SKY/WX    TMP DP  RH WIND       PRES   REMARKS
Savannah Arpt  CLEAR     43  40  89 SW7       29.92F
Atlanta        MOCLDY    43  37  79 W7        29.84F
Charlotte      MOCLDY    42  35  76 SW5       29.75F
Dallas DFW     PTCLDY    49  28  44 N20G25    30.31R
Houston Bush   PTCLDY    51  35  54 NW6       30.23R
Wash National  CLOUDY    42  32  67 S8        29.64F
Wash Dulles    CLOUDY    38  31  76 S9        29.61F WCI  31
Baltimore      CLOUDY    40  32  73 S6        29.63F WCI  36
Philadelphia   CLOUDY    43  34  70 SE12      29.66F
Newark         CLOUDY    45  37  73 S8        29.71F
Laguardia      CLOUDY    47  37  68 S14       29.72F
J F K          CLOUDY    47  38  71 S21G28    29.73F
Boston         NOT AVBL
Pittsburg      FLURRIES  37  30  75 W10G24    29.58R WCI  30
Akron          LGT SNOW  32  28  85 W9        29.62R FOG     WCI  24
Cleveland      LGT SNOW  32  28  85 NW17G28   29.68R FOG     WCI  21
Cincinnati     DRIZZLE   33  32  96 W17G26    29.84R FOG     WCI  22
Columbus       CLOUDY    33  32  97 NW10      29.75R FOG     WCI  24
Detroit        LGT SNOW  26  17  68 NW17G31   29.75R BLWGSNOWWCI  13
Chicago O`Hare PTCLDY    20   8  60 NW18G24   30.03R WCI   5
Minneapolis    CLEAR      8   3  80 NW9       30.25S WCI  -5
Indianapolis   CLOUDY    30  21  69 NW20G31   29.92R WCI  17
Toronto Canada LGT SNOW  27  25  93 NW8       29.51F WCI  18

$$




USA.gov is the U.S. government's official web portal to all federal, state and local government web resources and services.